Regional Weather Roundup
Issued by NWS

Home | Current Version | Previous Version | Text Only | Print | Product List | Glossary On
Versions: 1 2 3 4 5 6 7 8 9 10 11 12 13 14 15 16 17 18 19 20 21 22 23 24 25 26 27 28 29 30 31 32 33 34 35 36 37 38 39 40 41 42 43 44 45 46 47 48 49 50
000
ASUS44 KLUB 252201
RWRTX
WEST TEXAS WEATHER ROUNDUP
NATIONAL WEATHER SERVICE LUBBOCK TX
500 PM CDT MON JUL 25 2016

NOTE: "FAIR" INDICATES FEW OR NO CLOUDS BELOW 12,000 FEET WITH NO
SIGNIFICANT WEATHER AND/OR OBSTRUCTIONS TO VISIBILITY.

TXZ004-006>008-010-012-014-016-OKZ002-252300-
TEXAS PANHANDLE/OKLAHOMA PANHANDLE

CITY           SKY/WX    TMP DP  RH WIND       PRES   REMARKS
AMARILLO       CLOUDY    76  62  62 S13       30.11S
BORGER         CLOUDY    91  65  41 SE10      30.05F
CANADIAN       SUNNY     91  68  46 SE8       30.01S HX  95
DALHART        SUNNY     91  62  37 NE10      30.11F
DUMAS          SUNNY     92  64  39 E12       30.09F
GUYMON         SUNNY     88  66  48 NE12      30.06F
HEREFORD       LGT RAIN  75  67  75 SE23G33   30.09S
PAMPA          CLOUDY    88  65  45 SE6       30.08F
PERRYTON       SUNNY     92  67  44 NE12      30.06S HX  95
$$

TXZ026-029-035-045-048-252300-
SOUTHERN PANHANDLE/SOUTH PLAINS/ROLLING PLAINS

CITY           SKY/WX    TMP DP  RH WIND       PRES   REMARKS
CHILDRESS      MOSUNNY   99  63  30 E6        29.95F HX 101
SEMINOLE       MOSUNNY   97  51  20 E9        30.02F
LUBBOCK        MOSUNNY  100  58  24 E10G18    30.01F HX  99
PLAINVIEW      LGT RAIN  67  66  96 NE25G36     N/A
SNYDER           N/A     98  62  30 E12       29.95F HX 100
$$

TXZ052-054-060>062-072-078-127-140-154-169-252300-
PERMIAN BASIN/CONCHO VALLEY/BIG COUNTRY/EDWARDS PLATEAU

CITY           SKY/WX    TMP DP  RH WIND       PRES   REMARKS
ABILENE        SUNNY     99  63  30 NE9       29.92F HX 101
BIG SPRING     MOSUNNY   99  60  27 SE8       29.97F HX  98
JUNCTION       MOSUNNY   99  60  27 E9G20     29.90F HX  99
MIDLAND        MOSUNNY  101  57  23 E9        29.96F HX 100
ODESSA         SUNNY     99  55  23 SE8       29.98F HX  97
SAN ANGELO     SUNNY    101  61  26 E12       29.92F HX 102
SONORA         MOSUNNY   97  59  28 VRB5G12   29.96F HX  96
SWEETWATER     MOSUNNY   99  58  25 E13       29.97F HX  98
WINK           MOSUNNY  100  56  23 MISG      29.94F HX  99
$$

TXZ055-058-074-075-080-082-252300-
FAR WEST/SOUTHWEST MOUNTAINS/TRANS PECOS

CITY           SKY/WX    TMP DP  RH WIND       PRES   REMARKS
ALPINE         CLOUDY    92  50  23 E14       30.12F
DRYDEN           N/A    100  60  26 VRB7      29.90F HX 100
EL PASO        MOSUNNY   99  46  16 E9G18     29.99F HX  95
FORT STOCKTON  MOSUNNY   97  57  26 S9        29.97F HX  96
GUADALUPE PASS MOSUNNY   90  49  24 E20G29    30.16F
MARFA          MOSUNNY   91  50  24 NE13G20   30.10F
PECOS          SUNNY    102  52  18 E13G20    29.93F HX  99
PRESIDIO       FAIR     102  53  19 N7G16     29.89F HX 100
$$

TXZ014-016-019-021>030-083-252300
TEXAS TECH WEST TEXAS MESONET/TEXAS PANHANDLE/NORTHERN SOUTH PLAINS

CITY           SKY/WX    TMP DP  RH WIND       PRES   REMARKS
ABERNATHY 5ENE   N/A     92  59  32 E14       30.06R
AMARILLO 9NNE    N/A     87  62  44 SE13      30.08S
AMARILLO 7SSE    N/A     75  63  67 S16       30.13R
AMHERST 1NE      N/A     97  53  22 SE8G14    30.05S
BOOTLEG 11WNW    N/A     85  58  39 SE13      30.14R
CANADIAN 6E      N/A     92  66  43 E6        30.00F
CAPROCK CYN SP   N/A     85  65  50 NW9       30.05F
CHILDRESS 2NNE   N/A     98  62  30 NE7G14    29.96S HX  99
CLARENDON 2WSW   N/A     83  64  51 W3        30.06R
DIMMITT 2NE    HVY RAIN  72  65  79 NE6       30.13R
FLOYDADA 2NNE    N/A     80  62  54 NW26G38   30.08R
FRIONA 2NE       N/A     76  65  70 E21G28    30.12R
GOODLETT 3W      N/A     99  62  29 E12G18    29.93F HX 100
HART 3N          N/A     79  62  57 NE24G35   30.12R
HEREFORD 2NW   RAIN      74  62  65 SE16G26   30.12S
MCLEAN 1E        N/A     91  64  41 NE3       30.04F
MEMPHIS 1NE      N/A     95  62  32 S3        29.98S HX  96
MULESHOE 2SSW    N/A     96  50  21 S6        30.06S
OLTON 6S         N/A     84  62  47 NE37G45   30.09R
PALO DURO SP     N/A     70  66  88 S3        30.13R
PAMPA 2E         N/A     86  65  49 NE6       30.08F
PLAINVIEW 1S   HVY RAIN  71  66  82 N30G45    30.11R
SILVERTON 7ESE   N/A     73  63  70 NW15G21   30.08S
TULIA 2ENE       N/A     69  65  88 E16       30.15R
TURKEY 2WSW      N/A     86  64  47 NW15      30.02S
UMBARGER 3NNE    N/A     73  68  86 E12       30.13R
$$

TXZ033>036-039>041-045>048-252300
TEXAS TECH WEST TEXAS MESONET/SOUTH PLAINS

CITY           SKY/WX    TMP DP  RH WIND       PRES   REMARKS
AIKEN 3WSW       N/A     78  64  61 N33G43    30.12R
ANDREWS 2NE      N/A     97  50  20 E6        30.02F
ANTON 6SSW       N/A     95  57  27 E8        30.04S
BROWNFIELD 2S    N/A     96  53  23 S8        30.02F
DENVR CTY 7WNW   N/A     97  47  18 SE12G18   30.05F
GAIL 2ESE        N/A     96  59  29 E6        29.96F HX  95
LAMESA 2SE       N/A     97  55  24 E5        30.00F HX  95
LEVELLAND 4S     N/A     97  51  21 E9        30.05S
LUBBOCK 3WNW     N/A     97  56  24 SE10      30.03S HX  95
MORTON 1ENE      N/A     97  51  21 E8        30.05F
ODONNELL 1N      N/A     98  53  21 S7        30.01F HX  95
PLAINS 3N        N/A     96  52  22 SE6G14    30.06F
RALLS 1SE        N/A     92  59  32 E6        30.05R
REESE CENTER     N/A     96  51  21 E10G16    30.03F
SEAGRAVES 1SW    N/A     97  52  22 E6        30.03F
SEMINOLE 2NNE    N/A     98  50  19 E10       30.02F HX  95
SLATON 2NE       N/A     98  54  22 E10       30.02F HX  96
SNYDER 3E        N/A    100  58  25 E6G12     29.96F HX  99
SUNDOWN 8SW      N/A     99  51  20 SE14G20   30.04F HX  96
TAHOKA 3NNE      N/A     98  54  23 E7        30.01F HX  96
WOLFFORTH 6SSW   N/A     98  54  23 E8        30.03F HX  95
$$

TXZ031-032-036>038-042>044-252300-
TEXAS TECH WEST TEXAS MESONET/ROLLING PLAINS

CITY           SKY/WX    TMP DP  RH WIND       PRES   REMARKS
ASPERMONT 3NE    N/A    101  57  23 SE6       29.92S HX 100
FLUVANNA 3WNW    N/A     97  54  23 SE6       29.98F HX  95
GRAHAM 5SSW      N/A     84  62  46 W20G31    30.02R
GUTHRIE 10WSW    N/A    102  55  20 E8        29.93S HX 100
HASKELL 1NW      N/A     99  60  27 N3        29.90F HX  99
JAYTON 1SSE      N/A    101  55  21 NE3       29.93S HX  99
KNOX CITY 3NW    N/A    102  55  21 E5        29.90F HX 100
LK A HENRY 1NW   N/A     99  54  21 NE8       29.94F HX  97
NORTHFIELD 1S    N/A     97  63  33 NE8       29.97S HX  98
PADUCAH 10SW     N/A     98  62  30 NE7       29.96S HX  98
POST 1NE         N/A     92  63  37 S12       29.98S
RRING SPRGS 3N   N/A     96  60  30 E9        30.00S HX  95
SEYMOUR 3NW      N/A    101  57  23 NE8G14    29.90F HX 101
SPUR 1W          N/A     98  53  21 E6        29.96S HX  95
WEINERT 2NNE     N/A    101  62  27 NE9       29.91S HX 102
WHITE RVR 6NE    N/A    100  52  20 NE5       29.99S HX  97
$$

TXZ052-054-060>062-072-078-127-140-154-169-252300-
TEXAS TECH WEST TEXAS MESONET/PERMIAN BASIN/
CONCHO VALLEY/BIG COUNTRY/EDWARDS PLATEAU

CITY           SKY/WX    TMP DP  RH WIND       PRES   REMARKS
COYANOSA 2N      N/A    100  56  22 SE14      29.95F HX  99
JUNCTION 1SSW    N/A    101  63  28 NE9       29.91F HX 104
MERTZON 3NNE     N/A    100  60  26 NE12      29.95F HX 101
SAN ANGELO 7NW   N/A    100  56  23 E10       29.93F HX  99
STRLNG CT 4WSW   N/A    101  58  24 NE7       29.96F HX 100
ST LAWRNCE 5SW   N/A     99  55  23 E7G15     29.97F HX  97
SWEETWATR 11SW   N/A     99  62  29 SE8       29.98F HX 100
WALL 1E          N/A    100  57  24 NE7G13    29.94F HX  98
$$

TXZ055-058-074-075-080-082-252300-
TEXAS TECH WEST TEXAS MESONET/FAR WEST/SOUTHWEST MOUNTAINS/TRANS PECOS

CITY           SKY/WX    TMP DP  RH WIND       PRES   REMARKS
PRSMN GAP BBNP   N/A     99  53  21 NE13      29.94F HX  96
GUADLPE MTN NP   N/A     89  46  22 SE15      30.19F
$$




USA.gov is the U.S. government's official web portal to all federal, state and local government web resources and services.